Terminal Aerodrome Forecast
Issued by NWS El Paso, TX

Home | Current Version | Previous Version | Text Only | Print | Product List | Glossary On
Versions: 1 2 3 4 5 6 7 8 9 10 11 12 13
000
FTUS44 KEPZ 212300
TAFELP
TAF
KELP 212320Z 2200/2224 27010G18KT P6SM FEW180 BKN250
     FM220200 28010KT P6SM BKN250
     FM221800 26013G20KT P6SM FEW170 BKN250=

USA.gov is the U.S. government's official web portal to all federal, state and local government web resources and services.